This is the latest recevied weather packets stored in our database for station/object KC3ROS. If no packets are shown the sender has not sent any weather packets the latest 10 day(s).
| Time | Temp. | Humidity | Pressure | Rain* | Wind** | Luminosity | Snow |
|---|---|---|---|---|---|---|---|
| 1777149824 | 12.78° C | 93% | 1009.5 hPa | 0 mm | - | 90 W/m² | - |
| 1777149522 | 12.78° C | 94% | 1009.4 hPa | 0 mm | - | 82 W/m² | - |
| 1777149218 | 12.78° C | 94% | 1009.6 hPa | 0 mm | - | 65 W/m² | - |
| 1777148912 | 12.78° C | 93% | 1009.4 hPa | 0 mm | - | 72 W/m² | - |
| 1777148609 | 12.78° C | 93% | 1009.5 hPa | 0 mm | - | 91 W/m² | - |
| 1777148305 | 12.78° C | 93% | 1009.5 hPa | 0 mm | - | 95 W/m² | - |
| 1777148001 | 12.78° C | 93% | 1009.3 hPa | 0 mm | - | 83 W/m² | - |
| 1777147697 | 12.78° C | 93% | 1009.3 hPa | 0 mm | - | 67 W/m² | - |
| 1777147394 | 13.33° C | 94% | 1009.3 hPa | 0 mm | - | 69 W/m² | - |
| 1777147089 | 12.78° C | 93% | 1009.5 hPa | 0 mm | - | 72 W/m² | - |
| 1777146785 | 12.78° C | 93% | 1009.2 hPa | 0 mm | - | 113 W/m² | - |
| 1777146481 | 12.78° C | 94% | 1009.2 hPa | 0 mm | - | 120 W/m² | - |
| 1777146177 | 12.78° C | 94% | 1009.2 hPa | 0 mm | - | 181 W/m² | - |
| 1777145873 | 12.78° C | 94% | 1009.2 hPa | 0 mm | - | 107 W/m² | - |
| 1777145569 | 12.78° C | 95% | 1009.3 hPa | 0 mm | - | 105 W/m² | - |
| 1777145264 | 12.78° C | 95% | 1009.2 hPa | 0 mm | - | 103 W/m² | - |
| 1777144960 | 12.78° C | 96% | 1009.2 hPa | 0 mm | - | 80 W/m² | - |
| 1777144659 | 12.78° C | 97% | 1009.1 hPa | 0 mm | - | 68 W/m² | - |
| 1777144354 | 12.78° C | 97% | 1009.1 hPa | 0 mm | - | 48 W/m² | - |
| 1777144051 | 12.78° C | 97% | 1009 hPa | 0 mm | - | 49 W/m² | - |
| 1777143747 | 12.78° C | 98% | 1008.8 hPa | 0 mm | - | 64 W/m² | - |
| 1777143443 | 12.78° C | 98% | 1009 hPa | 0 mm | - | 60 W/m² | - |
| 1777143134 | 12.78° C | 98% | 1008.8 hPa | 0 mm | - | 52 W/m² | - |
| 1777142830 | 13.33° C | 99% | 1008.8 hPa | 0 mm | - | 57 W/m² | - |
| 1777142527 | 13.33° C | 99% | 1008.8 hPa | 0 mm | - | 72 W/m² | - |
* Rain latest hour (hover to see other rain measurements)
** Current wind speed in m/s (hover to see current wind gust speed)